GRL780 BGGH-BIKF

Flight info

Callsign GRL780
Flight time N/A
Altitude 39000
Route EVULO1A EVULO DCT DEVNU DCT GOKIK DCT GIRUG GIRUG4M
Aircraft A338/H-SADE1E2E3GHIJ3J5M1P2RWXY/LB2D1

Departure

Time 2026-04-26 16:55
Airport Nuuk International Airport (BGGH)

Arrival

Time N/A
Airport Keflavik International Airport (BIKF)
Time Latitude Longitude Altitude Speed Heading
2026-04-26 16:54 64.14611 -51.64086 7080 ft 278 kts 89°
2026-04-26 16:55 64.14362 -51.59651 7742 ft 284 kts 91°
2026-04-26 16:55 64.14011 -51.55213 8427 ft 289 kts 94°
2026-04-26 16:55 64.13563 -51.50706 9118 ft 293 kts 96°
2026-04-26 16:55 64.13048 -51.46124 9806 ft 297 kts 97°
2026-04-26 16:56 64.11929 -51.36774 10716 ft 321 kts 98°
2026-04-26 16:56 64.11312 -51.31739 11159 ft 333 kts 99°
2026-04-26 16:56 64.10679 -51.26645 11819 ft 337 kts 100°
2026-04-26 16:57 64.10072 -51.21475 12509 ft 336 kts 93°
2026-04-26 16:57 64.10162 -51.16366 13130 ft 320 kts 64°
2026-04-26 16:57 64.12323 -51.07835 14459 ft 313 kts 49°
2026-04-26 16:58 64.13500 -51.03607 15117 ft 317 kts 50°
2026-04-26 16:58 64.14282 -51.00735 15572 ft 319 kts 50°
2026-04-26 16:58 64.16969 -50.90611 17129 ft 324 kts 51°
2026-04-26 16:59 64.18114 -50.86223 17777 ft 327 kts 51°
2026-04-26 16:59 64.20425 -50.77288 18999 ft 333 kts 51°
2026-04-26 17:00 64.22711 -50.68394 20131 ft 340 kts 50°
2026-04-26 17:00 64.25120 -50.58986 21061 ft 352 kts 50°
2026-04-26 17:00 64.26308 -50.54325 21524 ft 356 kts 50°
2026-04-26 17:01 64.27559 -50.49402 22058 ft 359 kts 50°
2026-04-26 17:01 64.28826 -50.44397 22575 ft 362 kts 50°
2026-04-26 17:01 64.30105 -50.39341 23071 ft 366 kts 50°
2026-04-26 17:01 64.31387 -50.34261 23553 ft 369 kts 51°
2026-04-26 17:02 64.32682 -50.29114 24004 ft 373 kts 51°
2026-04-26 17:02 64.33978 -50.23955 24447 ft 376 kts 51°
2026-04-26 17:02 64.35278 -50.18762 24889 ft 379 kts 51°
2026-04-26 17:02 64.36608 -50.13442 25326 ft 382 kts 51°
2026-04-26 17:03 64.37819 -50.07964 25736 ft 392 kts 56°
2026-04-26 17:03 64.38811 -50.01974 26140 ft 402 kts 63°
2026-04-26 17:03 64.39533 -49.95687 26534 ft 411 kts 67°
2026-04-26 17:03 64.40144 -49.89246 26929 ft 415 kts 68°
2026-04-26 17:04 64.40741 -49.82666 27305 ft 418 kts 68°
2026-04-26 17:04 64.41335 -49.76062 27671 ft 421 kts 68°
2026-04-26 17:04 64.41923 -49.69516 28025 ft 424 kts 68°
2026-04-26 17:04 64.42523 -49.62832 28379 ft 427 kts 68°
2026-04-26 17:05 64.43128 -49.56087 28725 ft 430 kts 68°
2026-04-26 17:05 64.43734 -49.49311 29064 ft 432 kts 68°
2026-04-26 17:05 64.44340 -49.42493 29394 ft 435 kts 68°
2026-04-26 17:05 64.44949 -49.35635 29718 ft 438 kts 68°
2026-04-26 17:06 64.45563 -49.28663 30017 ft 441 kts 69°
2026-04-26 17:06 64.46176 -49.21668 30307 ft 444 kts 69°
2026-04-26 17:06 64.46787 -49.14660 30610 ft 447 kts 69°
2026-04-26 17:06 64.47387 -49.07682 30948 ft 448 kts 68°
2026-04-26 17:07 64.47997 -49.00548 31306 ft 449 kts 68°
2026-04-26 17:07 64.48598 -48.93486 31656 ft 449 kts 68°
2026-04-26 17:07 64.49206 -48.86337 31977 ft 451 kts 67°
2026-04-26 17:07 64.49811 -48.79223 32251 ft 453 kts 67°
2026-04-26 17:08 64.50413 -48.72099 32508 ft 455 kts 67°
2026-04-26 17:08 64.51022 -48.64830 32766 ft 458 kts 67°
2026-04-26 17:08 64.51623 -48.57603 33017 ft 460 kts 67°
2026-04-26 17:08 64.52223 -48.50327 33302 ft 461 kts 67°
2026-04-26 17:09 64.52818 -48.43046 33652 ft 461 kts 67°
2026-04-26 17:09 64.53213 -48.38173 33888 ft 460 kts 67°
2026-04-26 17:09 64.53999 -48.28457 34307 ft 460 kts 68°
2026-04-26 17:09 64.54580 -48.21226 34588 ft 461 kts 68°
2026-04-26 17:10 64.55167 -48.13880 34894 ft 461 kts 68°
2026-04-26 17:10 64.55746 -48.06585 35208 ft 460 kts 68°
2026-04-26 17:10 64.56323 -47.99246 35514 ft 460 kts 68°
2026-04-26 17:10 64.56892 -47.91970 35782 ft 460 kts 68°
2026-04-26 17:11 64.57458 -47.84692 36046 ft 460 kts 68°
2026-04-26 17:11 64.58021 -47.77401 36318 ft 460 kts 68°
2026-04-26 17:11 64.58585 -47.70041 36584 ft 460 kts 68°
2026-04-26 17:11 64.59137 -47.62800 36840 ft 459 kts 68°
2026-04-26 17:12 64.60246 -47.48084 37311 ft 460 kts 68°
2026-04-26 17:12 64.60789 -47.40797 37494 ft 461 kts 68°
2026-04-26 17:13 64.61880 -47.26054 37783 ft 464 kts 69°
2026-04-26 17:13 64.62418 -47.18700 37899 ft 466 kts 69°
2026-04-26 17:13 64.63495 -47.03788 38165 ft 470 kts 69°
2026-04-26 17:14 64.64032 -46.96242 38332 ft 470 kts 69°
2026-04-26 17:14 64.65080 -46.81286 38573 ft 467 kts 68°
2026-04-26 17:14 64.65598 -46.73793 38574 ft 464 kts 68°
2026-04-26 17:15 64.67124 -46.51640 38573 ft 462 kts 68°
2026-04-26 17:16 64.68121 -46.36888 38572 ft 462 kts 68°
2026-04-26 17:16 64.69112 -46.21997 38572 ft 464 kts 69°
2026-04-26 17:17 64.70078 -46.07205 38573 ft 464 kts 69°
2026-04-26 17:17 64.71036 -45.92300 38573 ft 464 kts 69°
2026-04-26 17:18 64.71977 -45.77399 38573 ft 464 kts 69°
2026-04-26 17:18 64.72283 -45.72507 38572 ft 464 kts 69°